Location: Nemiskam
(49.4820°N, 111.2775°W)
Time: 08:43:39
(UTC+00:00)

Envisat - Pass Details

Date: 29 November 2022
Orbit: 763 x 765 km, 98.2° (Epoch: 28 January)

Event Time Altitude Azimuth Distance (km) Brightness Sun altitude
Rises 13:28:34 0° 2° (N) 3,247 6.1 -13.8°
Reaches altitude 10° 13:31:37 10° 343° (NNW) 2,315 5.2 -13.4°
Enters shadow 13:34:46 17° 305° (NW) 1,870 4.4 -12.9°
